DW2149 Weather Reports


Display with metric or nautical units.
time (UTC)temp
F
wind
direction
speed
MPH
gust
MPH
rain 1hr
in
rain 24hr
in
rain mn
in
humidity
%
barometer
mb
20260831191513 81 208 1.0 6.0 0.00 0.00 0.00 37 1010.3
20260831191309 80 229 1.0 6.0 0.00 0.00 0.00 42 1010.3
20260831190912 80 221 1.0 6.0 0.00 0.00 0.00 41 1010.4
20260831190701 80 216 0.0 6.0 0.00 0.00 0.00 39 1010.4
20260831190451 81 240 0.0 6.0 0.00 0.00 0.00 38 1010.4
20260831190059 80 242 1.0 7.0 0.00 0.00 0.00 37 1010.4
20260831185849 80 218 1.0 7.0 0.00 0.00 0.00 36 1010.4
20260831185637 80 209 1.0 7.0 0.00 0.00 0.00 38 1010.4
20260831185425 80 241 1.0 7.0 0.00 0.00 0.00 36 1010.4
20260831185219 80 241 2.0 7.0 0.00 0.00 0.00 35 1010.4
20260831185014 80 225 1.0 7.0 0.00 0.00 0.00 36 1010.4
20260831184803 80 224 1.0 7.0 0.00 0.00 0.00 39 1010.4
20260831184415 79 219 1.0 7.0 0.00 0.00 0.00 36 1010.4
20260831184206 79 227 1.0 7.0 0.00 0.00 0.00 37 1010.4
20260831183954 78 237 1.0 3.0 0.00 0.00 0.00 39 1010.4
20260831183602 78 190 1.0 7.0 0.00 0.00 0.00 38 1010.4
20260831183211 77 214 1.0 7.0 0.00 0.00 0.00 41 1010.3
20260831183002 77 213 0.0 8.0 0.00 0.00 0.00 40 1010.3
20260831182752 77 219 0.0 8.0 0.00 0.00 0.00 38 1010.3
20260831182550 77 217 0.0 8.0 0.00 0.00 0.00 39 1010.3
20260831182345 76 217 1.0 8.0 0.00 0.00 0.00 39 1010.3
20260831182135 76 217 1.0 8.0 0.00 0.00 0.00 41 1010.3
20260831181927 76 217 1.0 8.0 0.00 0.00 0.00 41 1010.3
20260831181722 76 217 1.0 8.0 0.00 0.00 0.00 41 1010.3
20260831181512 76 221 1.0 8.0 0.00 0.00 0.00 40 1010.3
20260831181118 76 215 1.0 8.0 0.00 0.00 0.00 40 1010.3
20260831180911 75 217 1.0 6.0 0.00 0.00 0.00 40 1010.3
20260831180707 75 217 1.0 6.0 0.00 0.00 0.00 40 1010.3
20260831180458 75 217 1.0 6.0 0.00 0.00 0.00 41 1010.3
20260831180250 75 217 1.0 6.0 0.00 0.00 0.00 42 1010.3
20260831180047 74 217 1.0 6.0 0.00 0.00 0.00 43 1010.2
20260831175843 74 217 1.0 6.0 0.00 0.00 0.00 43 1010.2
20260831175639 74 216 1.0 6.0 0.00 0.00 0.00 44 1010.2
20260831175251 74 215 1.0 6.0 0.00 0.00 0.00 44 1010.2
20260831175040 73 237 1.0 6.0 0.00 0.00 0.00 44 1010.2
20260831174833 73 230 1.0 6.0 0.00 0.00 0.00 45 1010.3
20260831174621 73 231 1.0 6.0 0.00 0.00 0.00 45 1010.2
20260831174415 73 231 1.0 6.0 0.00 0.00 0.00 46 1010.2
20260831174207 72 231 0.0 6.0 0.00 0.00 0.00 46 1010.2
20260831174003 72 219 0.0 6.0 0.00 0.00 0.00 46 1010.2
20260831173612 72 223 0.0 2.0 0.00 0.00 0.00 47 1010.2
20260831173402 71 223 0.0 2.0 0.00 0.00 0.00 48 1010.2
20260831173151 71 223 0.0 0.0 0.00 0.00 0.00 48 1010.2
20260831172940 71 223 0.0 2.0 0.00 0.00 0.00 49 1010.2
20260831172543 70 223 0.0 1.0 0.00 0.00 0.00 50 1010.2
20260831172332 70 223 0.0 0.0 0.00 0.00 0.00 50 1010.1
20260831171935 69 227 0.0 0.0 0.00 0.00 0.00 50 1010.1
20260831171733 69 227 0.0 0.0 0.00 0.00 0.00 51 1010.1
20260831171346 69 227 0.0 0.0 0.00 0.00 0.00 51 1010.1
20260831170950 68 227 0.0 4.0 0.00 0.00 0.00 51 1010.0
20260831170744 68 227 0.0 4.0 0.00 0.00 0.00 52 1010.0
20260831170538 67 227 0.0 4.0 0.00 0.00 0.00 54 1010.0
20260831170151 67 232 0.0 2.0 0.00 0.00 0.00 55 1010.0
20260831165939 66 231 0.0 0.0 0.00 0.00 0.00 56 1009.9
20260831165729 66 231 0.0 0.0 0.00 0.00 0.00 57 1010.0
20260831165519 65 231 0.0 0.0 0.00 0.00 0.00 57 1009.9
20260831165315 65 231 0.0 0.0 0.00 0.00 0.00 58 1010.0
20260831164733 64 231 0.0 4.0 0.00 0.00 0.00 60 1009.9
20260831164528 64 231 0.0 4.0 0.00 0.00 0.00 62 1010.0
20260831164317 63 231 0.0 0.0 0.00 0.00 0.00 64 1010.0
20260831164107 63 231 0.0 0.0 0.00 0.00 0.00 64 1010.0
20260831163857 62 231 0.0 1.0 0.00 0.00 0.00 65 1009.9
20260831163645 62 231 0.0 0.0 0.00 0.00 0.00 66 1010.0
20260831163436 62 231 0.0 0.0 0.00 0.00 0.00 66 1010.0
20260831163227 61 231 0.0 1.0 0.00 0.00 0.00 68 1010.0
20260831162837 61 231 0.0 3.0 0.00 0.00 0.00 69 1010.0
20260831162630 60 231 0.0 3.0 0.00 0.00 0.00 70 1010.0
20260831162426 60 231 0.0 2.0 0.00 0.00 0.00 71 1010.1
20260831162221 60 231 0.0 0.0 0.00 0.00 0.00 73 1010.0
20260831162015 59 231 0.0 0.0 0.00 0.00 0.00 74 1010.1
20260831161805 59 231 0.0 0.0 0.00 0.00 0.00 75 1010.0
20260831161552 59 231 0.0 1.0 0.00 0.00 0.00 77 1010.1
20260831161344 59 231 0.0 0.0 0.00 0.00 0.00 77 1010.1
20260831160946 58 231 0.0 0.0 0.00 0.00 0.00 77 1010.1
20260831160734 58 231 0.0 0.0 0.00 0.00 0.00 77 1010.1
20260831160526 58 231 0.0 0.0 0.00 0.00 0.00 77 1010.1
20260831160323 58 231 0.0 0.0 0.00 0.00 0.00 77 1010.1
20260831160120 58 231 0.0 0.0 0.00 0.00 0.00 76 1010.2
20260831155733 57 231 0.0 0.0 0.00 0.00 0.00 76 1010.2
20260831155529 57 231 0.0 0.0 0.00 0.00 0.00 76 1010.2
20260831155321 57 231 0.0 0.0 0.00 0.00 0.00 76 1010.2
20260831155120 57 231 0.0 0.0 0.00 0.00 0.00 75 1010.2
20260831154907 57 231 0.0 0.0 0.00 0.00 0.00 75 1010.2
20260831154703 57 231 0.0 0.0 0.00 0.00 0.00 75 1010.2
20260831154450 57 231 0.0 0.0 0.00 0.00 0.00 75 1010.2
20260831154241 56 231 0.0 0.0 0.00 0.00 0.00 74 1010.1
20260831154035 56 231 0.0 0.0 0.00 0.00 0.00 74 1010.1
20260831153832 56 231 0.0 0.0 0.00 0.00 0.00 74 1010.2
20260831153619 56 231 0.0 0.0 0.00 0.00 0.00 74 1010.2
20260831153228 56 231 0.0 0.0 0.00 0.00 0.00 73 1010.2
20260831153026 56 231 0.0 0.0 0.00 0.00 0.00 73 1010.1
20260831152823 56 231 0.0 0.0 0.00 0.00 0.00 73 1010.1
20260831152616 56 231 0.0 0.0 0.00 0.00 0.00 73 1010.1
20260831152405 56 231 0.0 0.0 0.00 0.00 0.00 72 1010.1
20260831152159 56 231 0.0 0.0 0.00 0.00 0.00 72 1010.1
20260831151950 56 231 0.0 0.0 0.00 0.00 0.00 72 1010.1
20260831151746 55 231 0.0 0.0 0.00 0.00 0.00 72 1010.1
20260831151537 55 231 0.0 0.0 0.00 0.00 0.00 72 1010.1
20260831151142 55 231 0.0 0.0 0.00 0.00 0.00 71 1010.1
20260831150939 55 231 0.0 0.0 0.00 0.00 0.00 71 1010.1
20260831150735 55 231 0.0 0.0 0.00 0.00 0.00 71 1010.0
20260831150528 55 231 0.0 0.0 0.00 0.00 0.00 71 1010.0
20260831150318 55 231 0.0 0.0 0.00 0.00 0.00 71 1010.0
20260831150107 55 231 0.0 0.0 0.00 0.00 0.00 71 1010.0
20260831145904 55 231 0.0 0.0 0.00 0.00 0.00 71 1010.1
20260831145655 55 231 0.0 0.0 0.00 0.00 0.00 70 1010.0
20260831145452 55 231 0.0 0.0 0.00 0.00 0.00 70 1010.1
20260831145240 55 231 0.0 0.0 0.00 0.00 0.00 70 1010.1
20260831145028 55 231 0.0 0.0 0.00 0.00 0.00 70 1010.2
20260831144819 55 231 0.0 0.0 0.00 0.00 0.00 70 1010.1
20260831144615 55 231 0.0 0.0 0.00 0.00 0.00 70 1010.1
20260831144407 55 231 0.0 0.0 0.00 0.00 0.00 70 1010.1
20260831144157 55 231 0.0 0.0 0.00 0.00 0.00 70 1010.1
20260831143946 55 231 0.0 0.0 0.00 0.00 0.00 70 1010.1
20260831143739 55 231 0.0 0.0 0.00 0.00 0.00 70 1010.1
20260831143533 55 231 0.0 0.0 0.00 0.00 0.00 69 1010.1
20260831143320 55 231 0.0 0.0 0.00 0.00 0.00 70 1010.1
20260831143117 55 231 0.0 0.0 0.00 0.00 0.00 70 1010.0
20260831142726 55 231 0.0 0.0 0.00 0.00 0.00 69 1010.0
20260831142336 55 231 0.0 0.0 0.00 0.00 0.00 69 1010.0
20260831142134 55 231 0.0 0.0 0.00 0.00 0.00 69 1010.0
20260831141929 55 231 0.0 0.0 0.00 0.00 0.00 69 1010.0
20260831141715 55 231 0.0 0.0 0.00 0.00 0.00 69 1010.0
20260831141501 55 231 0.0 0.0 0.00 0.00 0.00 69 1010.0
20260831141255 55 231 0.0 0.0 0.00 0.00 0.00 69 1010.0
20260831140904 55 231 0.0 0.0 0.00 0.00 0.00 69 1010.0
20260831140655 55 231 0.0 0.0 0.00 0.00 0.00 69 1010.0
20260831140450 55 231 0.0 0.0 0.00 0.00 0.00 69 1009.9
20260831140243 55 231 0.0 0.0 0.00 0.00 0.00 69 1009.9
20260831140034 55 231 0.0 0.0 0.00 0.00 0.00 68 1009.9
20260831135822 55 231 0.0 0.0 0.00 0.00 0.00 68 1009.9
20260831135621 55 231 0.0 0.0 0.00 0.00 0.00 68 1009.8
20260831135228 55 231 0.0 0.0 0.00 0.00 0.00 68 1009.8
20260831135017 55 231 0.0 0.0 0.00 0.00 0.00 68 1009.8
20260831134814 55 231 0.0 0.0 0.00 0.00 0.00 68 1009.7
20260831134612 55 231 0.0 0.0 0.00 0.00 0.00 68 1009.7
20260831134408 55 231 0.0 0.0 0.00 0.00 0.00 68 1009.8
20260831134200 55 231 0.0 0.0 0.00 0.00 0.00 68 1009.7
20260831133948 55 231 0.0 0.0 0.00 0.00 0.00 68 1009.7
20260831133743 55 231 0.0 0.0 0.00 0.00 0.00 68 1009.6
20260831133538 55 231 0.0 0.0 0.00 0.00 0.00 68 1009.6
20260831133141 55 231 0.0 0.0 0.00 0.00 0.00 68 1009.6
20260831132938 55 231 0.0 0.0 0.00 0.00 0.00 68 1009.6
20260831132550 55 231 0.0 0.0 0.00 0.00 0.00 67 1009.5
20260831132348 55 231 0.0 0.0 0.00 0.00 0.00 67 1009.6
20260831131605 55 231 0.0 0.0 0.00 0.00 0.00 67 1009.5
20260831131354 56 231 0.0 0.0 0.00 0.00 0.00 67 1009.5
20260831131144 56 231 0.0 0.0 0.00 0.00 0.00 67 1009.6
20260831130936 56 231 0.0 0.0 0.00 0.00 0.00 67 1009.6
20260831130729 56 231 0.0 0.0 0.00 0.00 0.00 67 1009.5
20260831130522 56 231 0.0 0.0 0.00 0.00 0.00 67 1009.6
20260831130314 56 231 0.0 0.0 0.00 0.00 0.00 67 1009.6
20260831130110 56 231 0.0 0.0 0.00 0.00 0.00 67 1009.6
20260831125907 56 231 0.0 0.0 0.00 0.00 0.00 67 1009.6
20260831125512 56 231 0.0 0.0 0.00 0.00 0.00 67 1009.6
20260831125306 56 231 0.0 0.0 0.00 0.00 0.00 67 1009.6
20260831125052 56 231 0.0 0.0 0.00 0.00 0.00 67 1009.6
20260831124654 56 231 0.0 0.0 0.00 0.00 0.00 67 1009.5
20260831124441 56 231 0.0 0.0 0.00 0.00 0.00 67 1009.6
20260831124232 56 231 0.0 0.0 0.00 0.00 0.00 67 1009.6
20260831124026 56 231 0.0 0.0 0.00 0.00 0.00 67 1009.5
20260831123821 56 231 0.0 0.0 0.00 0.00 0.00 67 1009.5
20260831123434 56 231 0.0 0.0 0.00 0.00 0.00 66 1009.5
20260831123228 56 231 0.0 0.0 0.00 0.00 0.00 66 1009.5
20260831123022 56 231 0.0 0.0 0.00 0.00 0.00 66 1009.5
20260831122811 56 231 0.0 0.0 0.00 0.00 0.00 66 1009.4
20260831122607 56 231 0.0 0.0 0.00 0.00 0.00 66 1009.4
20260831122357 56 231 0.0 0.0 0.00 0.00 0.00 66 1009.5
20260831122148 56 231 0.0 0.0 0.00 0.00 0.00 66 1009.5
20260831121940 56 231 0.0 0.0 0.00 0.00 0.00 66 1009.5
20260831121730 56 231 0.0 0.0 0.00 0.00 0.00 66 1009.5
20260831121528 56 231 0.0 0.0 0.00 0.00 0.00 66 1009.5
20260831121319 56 231 0.0 0.0 0.00 0.00 0.00 66 1009.5
20260831121110 56 231 0.0 0.0 0.00 0.00 0.00 66 1009.5
20260831120713 56 231 0.0 0.0 0.00 0.00 0.00 66 1009.5
20260831120502 56 231 0.0 0.0 0.00 0.00 0.00 66 1009.5
20260831120259 56 231 0.0 0.0 0.00 0.00 0.00 66 1009.5
20260831115904 56 231 0.0 0.0 0.00 0.00 0.00 66 1009.5
20260831115507 56 231 0.0 0.0 0.00 0.00 0.00 65 1009.6
20260831115301 56 231 0.0 0.0 0.00 0.00 0.00 65 1009.5
20260831115046 56 231 0.0 0.0 0.00 0.00 0.00 65 1009.5
20260831114833 56 231 0.0 0.0 0.00 0.00 0.00 66 1009.6
20260831114627 56 231 0.0 0.0 0.00 0.00 0.00 65 1009.6
20260831114423 56 231 0.0 0.0 0.00 0.00 0.00 65 1009.5
20260831114208 56 231 0.0 0.0 0.00 0.00 0.00 65 1009.6
20260831113815 57 231 0.0 0.0 0.00 0.00 0.00 65 1009.6
20260831113608 57 231 0.0 0.0 0.00 0.00 0.00 65 1009.5
20260831113357 57 231 0.0 0.0 0.00 0.00 0.00 65 1009.5
20260831113145 57 231 0.0 0.0 0.00 0.00 0.00 65 1009.5
20260831112933 57 231 0.0 0.0 0.00 0.00 0.00 65 1009.5
20260831112723 57 231 0.0 0.0 0.00 0.00 0.00 65 1009.6
20260831112520 57 231 0.0 0.0 0.00 0.00 0.00 65 1009.5
20260831112308 57 231 0.0 0.0 0.00 0.00 0.00 65 1009.6
20260831112102 57 231 0.0 0.0 0.00 0.00 0.00 65 1009.6
20260831111715 57 231 0.0 0.0 0.00 0.00 0.00 65 1009.7
20260831111513 57 231 0.0 0.0 0.00 0.00 0.00 65 1009.7
20260831111311 57 231 0.0 0.0 0.00 0.00 0.00 65 1009.6
20260831111101 57 231 0.0 0.0 0.00 0.00 0.00 65 1009.6
20260831110852 57 231 0.0 0.0 0.00 0.00 0.00 65 1009.7
20260831110643 57 231 0.0 0.0 0.00 0.00 0.00 65 1009.7
20260831110441 57 231 0.0 0.0 0.00 0.00 0.00 65 1009.7
20260831110233 57 231 0.0 0.0 0.00 0.00 0.00 65 1009.7
20260831110021 57 231 0.0 0.0 0.00 0.00 0.00 65 1009.7
20260831105631 57 231 0.0 0.0 0.00 0.00 0.00 64 1009.7
20260831105427 57 231 0.0 0.0 0.00 0.00 0.00 64 1009.7
20260831105214 57 231 0.0 0.0 0.00 0.00 0.00 64 1009.7
20260831105004 57 231 0.0 0.0 0.00 0.00 0.00 64 1009.7
20260831104607 57 231 0.0 0.0 0.00 0.00 0.00 64 1009.7
20260831104402 57 231 0.0 0.0 0.00 0.00 0.00 64 1009.7
20260831104150 57 231 0.0 0.0 0.00 0.00 0.00 64 1009.7
20260831103943 57 231 0.0 0.0 0.00 0.00 0.00 64 1009.7
20260831103731 57 231 0.0 0.0 0.00 0.00 0.00 64 1009.7
20260831103519 57 231 0.0 0.0 0.00 0.00 0.00 64 1009.6
20260831103313 57 231 0.0 0.0 0.00 0.00 0.00 64 1009.6
20260831103109 57 231 0.0 0.0 0.00 0.00 0.00 64 1009.6
20260831102859 57 231 0.0 0.0 0.00 0.00 0.00 64 1009.6
20260831102651 57 231 0.0 0.0 0.00 0.00 0.00 64 1009.5
20260831102254 57 231 0.0 0.0 0.00 0.00 0.00 64 1009.5
20260831102042 57 231 0.0 0.0 0.00 0.00 0.00 64 1009.5
20260831101840 57 231 0.0 0.0 0.00 0.00 0.00 64 1009.6
20260831101453 57 231 0.0 0.0 0.00 0.00 0.00 64 1009.5
20260831101240 57 231 0.0 0.0 0.00 0.00 0.00 64 1009.5
20260831100845 57 231 0.0 0.0 0.00 0.00 0.00 64 1009.5
20260831100632 57 231 0.0 0.0 0.00 0.00 0.00 64 1009.5
20260831100421 57 231 0.0 0.0 0.00 0.00 0.00 63 1009.5
20260831100215 57 231 0.0 0.0 0.00 0.00 0.00 64 1009.5
20260831100014 57 231 0.0 0.0 0.00 0.00 0.00 63 1009.5
20260831095627 57 231 0.0 0.0 0.00 0.00 0.00 63 1009.4
20260831095414 57 231 0.0 0.0 0.00 0.00 0.00 63 1009.4
20260831095207 57 231 0.0 0.0 0.00 0.00 0.00 63 1009.4
20260831095004 57 231 0.0 0.0 0.00 0.00 0.00 63 1009.4
20260831094617 57 231 0.0 0.0 0.00 0.00 0.00 63 1009.4
20260831094415 57 231 0.0 0.0 0.00 0.00 0.00 63 1009.4
20260831094025 57 231 0.0 0.0 0.00 0.00 0.00 62 1009.4
20260831093822 57 231 0.0 0.0 0.00 0.00 0.00 62 1009.5
20260831093610 57 231 0.0 0.0 0.00 0.00 0.00 62 1009.4
20260831093402 57 231 0.0 0.0 0.00 0.00 0.00 62 1009.5
20260831093008 57 231 0.0 0.0 0.00 0.00 0.00 62 1009.4
20260831092615 57 231 0.0 0.0 0.00 0.00 0.00 62 1009.4
20260831092406 58 231 0.0 0.0 0.00 0.00 0.00 62 1009.4
20260831092201 58 231 0.0 0.0 0.00 0.00 0.00 62 1009.4
20260831091949 58 231 0.0 0.0 0.00 0.00 0.00 62 1009.4
20260831091741 58 231 0.0 0.0 0.00 0.00 0.00 62 1009.4
20260831091536 58 231 0.0 0.0 0.00 0.00 0.00 62 1009.4
20260831091334 58 231 0.0 0.0 0.00 0.00 0.00 62 1009.4
20260831090942 58 231 0.0 0.0 0.00 0.00 0.00 62 1009.4
20260831090734 58 231 0.0 0.0 0.00 0.00 0.00 62 1009.4
20260831090522 58 231 0.0 0.0 0.00 0.00 0.00 61 1009.4
20260831085856 58 231 0.0 0.0 0.00 0.00 0.00 61 1009.5
20260831085654 58 231 0.0 0.0 0.00 0.00 0.00 61 1009.5
20260831085450 58 231 0.0 0.0 0.00 0.00 0.00 61 1009.6
20260831085239 58 231 0.0 0.0 0.00 0.00 0.00 61 1009.6
20260831085036 58 231 0.0 0.0 0.00 0.00 0.00 61 1009.6
20260831084828 58 231 0.0 0.0 0.00 0.00 0.00 61 1009.7
20260831084432 58 231 0.0 0.0 0.00 0.00 0.00 61 1009.6
20260831084222 58 231 0.0 0.0 0.00 0.00 0.00 61 1009.6
20260831084017 58 231 0.0 0.0 0.00 0.00 0.00 61 1009.6
20260831083811 58 231 0.0 0.0 0.00 0.00 0.00 61 1009.6
20260831083600 58 231 0.0 0.0 0.00 0.00 0.00 61 1009.6
20260831083357 58 231 0.0 0.0 0.00 0.00 0.00 61 1009.6
20260831083149 58 231 0.0 0.0 0.00 0.00 0.00 61 1009.5
20260831082755 58 231 0.0 0.0 0.00 0.00 0.00 61 1009.6
20260831082543 58 231 0.0 0.0 0.00 0.00 0.00 61 1009.6
20260831082339 58 231 0.0 0.0 0.00 0.00 0.00 61 1009.6
20260831081945 58 231 0.0 0.0 0.00 0.00 0.00 61 1009.7
20260831081743 58 231 0.0 0.0 0.00 0.00 0.00 60 1009.8
20260831081352 58 231 0.0 0.0 0.00 0.00 0.00 60 1009.7
20260831080957 58 231 0.0 0.0 0.00 0.00 0.00 60 1009.8
20260831080559 58 231 0.0 0.0 0.00 0.00 0.00 60 1009.8
20260831080357 58 231 0.0 0.0 0.00 0.00 0.00 60 1009.8
20260831080144 58 231 0.0 0.0 0.00 0.00 0.00 60 1009.9
20260831075934 58 231 0.0 0.0 0.00 0.00 0.00 60 1009.8
20260831075722 58 231 0.0 0.0 0.00 0.00 0.00 60 1009.9
20260831075513 59 231 0.0 0.0 0.00 0.00 0.00 60 1009.8
20260831075119 59 231 0.0 0.0 0.00 0.00 0.00 60 1009.8
20260831074910 59 231 0.0 0.0 0.00 0.00 0.00 60 1009.9
20260831074706 59 231 0.0 0.0 0.00 0.00 0.00 60 1009.9
20260831074501 59 231 0.0 0.0 0.00 0.00 0.00 59 1009.9
20260831074108 59 231 0.0 0.0 0.00 0.00 0.00 59 1009.9
20260831073903 59 231 0.0 0.0 0.00 0.00 0.00 59 1009.8
20260831073652 59 231 0.0 0.0 0.00 0.00 0.00 59 1009.8
20260831073254 59 231 0.0 0.0 0.00 0.00 0.00 59 1009.9
20260831073043 59 231 0.0 0.0 0.00 0.00 0.00 59 1009.9
20260831072830 59 231 0.0 0.0 0.00 0.00 0.00 59 1009.8
20260831072625 59 231 0.0 0.0 0.00 0.00 0.00 59 1009.8
20260831072045 59 231 0.0 0.0 0.00 0.00 0.00 59 1009.9
20260831071838 59 231 0.0 0.0 0.00 0.00 0.00 59 1009.9
20260831071629 59 231 0.0 0.0 0.00 0.00 0.00 59 1009.9
20260831071421 59 231 0.0 0.0 0.00 0.00 0.00 59 1009.9
20260831071216 59 231 0.0 0.0 0.00 0.00 0.00 59 1009.9
20260831070827 59 231 0.0 0.0 0.00 0.00 0.00 59 1009.9
20260831070616 59 231 0.0 0.0 0.00 0.00 0.00 59 1009.9
20260831070225 59 231 0.0 0.0 0.00 0.00 0.00 58 1009.9
20260831070023 59 231 0.0 0.0 0.00 0.00 0.00 58 1009.9
20260831065818 59 231 0.0 0.0 0.00 0.00 0.00 58 1009.9
20260831065609 60 231 0.0 0.0 0.00 0.00 0.00 58 1009.9
20260831065402 60 231 0.0 0.0 0.00 0.00 0.00 58 1009.9
20260831065155 60 231 0.0 0.0 0.00 0.00 0.00 58 1009.9
20260831064951 60 231 0.0 0.0 0.00 0.00 0.00 58 1010.0
20260831064743 60 231 0.0 0.0 0.00 0.00 0.00 58 1010.0
20260831064541 60 231 0.0 0.0 0.00 0.00 0.00 58 1010.0
20260831064328 60 231 0.0 0.0 0.00 0.00 0.00 57 1010.0
20260831064125 60 231 0.0 0.0 0.00 0.00 0.00 57 1010.0
20260831063915 60 231 0.0 0.0 0.00 0.00 0.00 57 1010.0
20260831063710 60 231 0.0 0.0 0.00 0.00 0.00 57 1010.0
20260831063504 60 231 0.0 0.0 0.00 0.00 0.00 57 1010.0
20260831063258 60 231 0.0 0.0 0.00 0.00 0.00 57 1010.0
20260831063046 60 231 0.0 0.0 0.00 0.00 0.00 57 1010.0
20260831062841 60 231 0.0 0.0 0.00 0.00 0.00 57 1010.0
20260831062637 60 231 0.0 0.0 0.00 0.00 0.00 57 1010.0
20260831062432 60 231 0.0 0.0 0.00 0.00 0.00 57 1010.0
20260831062041 60 231 0.0 0.0 0.00 0.00 0.00 56 1010.1
20260831061811 60 231 0.0 0.0 0.00 0.00 0.00 56 1010.1
20260831061602 61 231 0.0 0.0 0.00 0.00 0.00 56 1010.1
20260831061349 61 231 0.0 0.0 0.00 0.00 0.00 56 1010.0
20260831061145 61 231 0.0 0.0 0.00 0.00 0.00 56 1010.1
20260831060939 61 231 0.0 0.0 0.00 0.00 0.00 56 1010.0
20260831060732 61 231 0.0 0.0 0.00 0.00 0.00 56 1009.9
20260831060528 61 231 0.0 0.0 0.00 0.00 0.00 56 1010.0
20260831060314 61 231 0.0 0.0 0.00 0.00 0.00 55 1009.9
20260831055926 61 231 0.0 0.0 0.00 0.00 0.00 55 1010.0
20260831055719 61 231 0.0 0.0 0.00 0.00 0.00 55 1010.0
20260831055511 61 231 0.0 0.0 0.00 0.00 0.00 55 1010.0
20260831055305 61 231 0.0 0.0 0.00 0.00 0.00 55 1010.0
20260831054914 61 231 0.0 0.0 0.00 0.00 0.00 55 1010.0
20260831054705 61 231 0.0 0.0 0.00 0.00 0.00 55 1010.1
20260831054455 62 231 0.0 0.0 0.00 0.00 0.00 55 1010.0
20260831054251 62 231 0.0 0.0 0.00 0.00 0.00 55 1010.1
20260831054042 62 231 0.0 0.0 0.00 0.00 0.00 55 1010.0
20260831053839 62 231 0.0 0.0 0.00 0.00 0.00 54 1010.0
20260831053451 62 231 0.0 0.0 0.00 0.00 0.00 54 1010.0
20260831053242 62 231 0.0 0.0 0.00 0.00 0.00 54 1010.0
20260831053037 62 231 0.0 0.0 0.00 0.00 0.00 54 1010.0
20260831052826 62 231 0.0 0.0 0.00 0.00 0.00 54 1010.0
20260831052617 62 231 0.0 0.0 0.00 0.00 0.00 54 1010.0
20260831052412 62 231 0.0 0.0 0.00 0.00 0.00 54 1010.0
20260831052208 63 231 0.0 0.0 0.00 0.00 0.00 54 1010.0
20260831052003 63 231 0.0 0.0 0.00 0.00 0.00 54 1010.1
20260831051752 63 231 0.0 0.0 0.00 0.00 0.00 54 1010.2
20260831051209 63 231 0.0 0.0 0.00 0.00 0.00 53 1010.1
20260831050813 63 231 0.0 0.0 0.00 0.00 0.00 53 1010.1
20260831050610 63 231 0.0 0.0 0.00 0.00 0.00 53 1010.1
20260831050218 64 231 0.0 0.0 0.00 0.00 0.00 53 1010.1
20260831050013 64 231 0.0 0.0 0.00 0.00 0.00 53 1010.2
20260831045807 64 231 0.0 0.0 0.00 0.00 0.00 53 1010.2
20260831045606 64 231 0.0 0.0 0.00 0.00 0.00 52 1010.1
20260831045401 64 231 0.0 0.0 0.00 0.00 0.00 53 1010.1
20260831045151 64 231 0.0 0.0 0.00 0.00 0.00 52 1010.2
20260831044942 64 231 0.0 0.0 0.00 0.00 0.00 52 1010.2
20260831044729 64 231 0.0 0.0 0.00 0.00 0.00 52 1010.2
20260831044517 65 231 0.0 0.0 0.00 0.00 0.00 52 1010.2
20260831044315 65 231 0.0 0.0 0.00 0.00 0.00 52 1010.2
20260831044111 65 231 0.0 0.0 0.00 0.00 0.00 52 1010.2
20260831043909 65 231 0.0 0.0 0.00 0.00 0.00 51 1010.1
20260831043656 65 231 0.0 0.0 0.00 0.00 0.00 51 1010.1
20260831043308 65 231 0.0 0.0 0.00 0.00 0.00 51 1010.2
20260831042915 65 231 0.0 0.0 0.00 0.00 0.00 51 1010.2
20260831042526 66 231 0.0 0.0 0.00 0.00 0.00 50 1010.1
20260831042321 66 231 0.0 0.0 0.00 0.00 0.00 50 1010.1
20260831042117 66 231 0.0 0.0 0.00 0.00 0.00 50 1010.1
20260831041729 66 231 0.0 0.0 0.00 0.00 0.00 50 1010.1
20260831041517 66 231 0.0 0.0 0.00 0.00 0.00 50 1010.1
20260831040944 67 231 0.0 0.0 0.00 0.00 0.00 49 1010.0
20260831040552 67 231 0.0 0.0 0.00 0.00 0.00 48 1009.9
20260831040339 67 231 0.0 0.0 0.00 0.00 0.00 48 1009.9
20260831035943 68 231 0.0 0.0 0.00 0.00 0.00 48 1009.9
20260831035732 68 231 0.0 0.0 0.00 0.00 0.00 47 1009.9
20260831035527 68 231 0.0 0.0 0.00 0.00 0.00 47 1009.8
20260831035321 68 231 0.0 0.0 0.00 0.00 0.00 47 1009.8
20260831035117 68 231 0.0 0.0 0.00 0.00 0.00 47 1009.9
20260831034912 68 231 0.0 0.0 0.00 0.00 0.00 47 1009.9
20260831034704 69 231 0.0 0.0 0.00 0.00 0.00 46 1009.8
20260831034500 69 231 0.0 0.0 0.00 0.00 0.00 46 1009.8
20260831034253 69 231 0.0 0.0 0.00 0.00 0.00 46 1009.8
20260831034052 69 231 0.0 0.0 0.00 0.00 0.00 45 1009.8
20260831033849 69 231 0.0 0.0 0.00 0.00 0.00 45 1009.7
20260831033639 69 231 0.0 0.0 0.00 0.00 0.00 45 1009.7
20260831033433 70 231 0.0 0.0 0.00 0.00 0.00 45 1009.6
20260831033220 70 231 0.0 0.0 0.00 0.00 0.00 45 1009.6
20260831032826 70 231 0.0 0.0 0.00 0.00 0.00 44 1009.5
20260831032614 70 231 0.0 0.0 0.00 0.00 0.00 44 1009.5
20260831032403 71 231 0.0 0.0 0.00 0.00 0.00 44 1009.4
20260831032151 71 231 0.0 0.0 0.00 0.00 0.00 44 1009.4
20260831031757 71 231 0.0 0.0 0.00 0.00 0.00 43 1009.3
20260831031548 72 231 0.0 0.0 0.00 0.00 0.00 43 1009.3
20260831031340 72 231 0.0 0.0 0.00 0.00 0.00 43 1009.3
20260831031129 72 231 0.0 0.0 0.00 0.00 0.00 43 1009.3
20260831030925 72 231 0.0 0.0 0.00 0.00 0.00 43 1009.3
20260831030715 72 231 0.0 0.0 0.00 0.00 0.00 43 1009.3
20260831030508 72 231 0.0 0.0 0.00 0.00 0.00 43 1009.2
20260831030258 73 231 0.0 0.0 0.00 0.00 0.00 43 1009.2
20260831030053 73 231 0.0 0.0 0.00 0.00 0.00 43 1009.2
20260831025842 73 231 0.0 0.0 0.00 0.00 0.00 42 1009.2
20260831025310 74 231 0.0 0.0 0.00 0.00 0.00 42 1009.2
20260831024914 74 231 0.0 0.0 0.00 0.00 0.00 42 1009.2
20260831024520 74 231 0.0 0.0 0.00 0.00 0.00 42 1009.2
20260831024315 74 231 0.0 0.0 0.00 0.00 0.00 42 1009.2
20260831023926 75 231 0.0 0.0 0.00 0.00 0.00 41 1009.2
20260831023718 75 231 0.0 0.0 0.00 0.00 0.00 41 1009.2
20260831023515 75 231 0.0 0.0 0.00 0.00 0.00 41 1009.2
20260831022934 75 231 0.0 0.0 0.00 0.00 0.00 41 1009.2
20260831022536 76 231 0.0 0.0 0.00 0.00 0.00 40 1009.1
20260831022330 76 231 0.0 0.0 0.00 0.00 0.00 40 1009.1
20260831022128 76 231 0.0 0.0 0.00 0.00 0.00 40 1009.1
20260831021922 76 231 0.0 0.0 0.00 0.00 0.00 40 1009.1
20260831021715 77 231 0.0 0.0 0.00 0.00 0.00 40 1009.2
20260831021509 77 231 0.0 0.0 0.00 0.00 0.00 40 1009.1
20260831021301 77 231 0.0 0.0 0.00 0.00 0.00 40 1009.2
20260831021049 77 231 0.0 0.0 0.00 0.00 0.00 39 1009.1
20260831020838 77 231 0.0 0.0 0.00 0.00 0.00 39 1009.1
20260831020635 77 231 0.0 0.0 0.00 0.00 0.00 39 1009.1
20260831020426 78 231 0.0 0.0 0.00 0.00 0.00 38 1009.1
20260831020216 78 231 0.0 0.0 0.00 0.00 0.00 38 1009.0
20260831020011 78 231 0.0 0.0 0.00 0.00 0.00 38 1009.1
20260831015803 78 231 0.0 0.0 0.00 0.00 0.00 38 1009.0
20260831015558 78 231 0.0 0.0 0.00 0.00 0.00 38 1009.1
20260831015356 79 230 0.0 0.0 0.00 0.00 0.00 38 1009.1
20260831015145 79 230 0.0 1.0 0.00 0.00 0.00 38 1009.1
20260831014935 79 230 0.0 0.0 0.00 0.00 0.00 37 1009.1
20260831014725 79 230 0.0 0.0 0.00 0.00 0.00 38 1009.2
20260831014519 79 231 0.0 0.0 0.00 0.00 0.00 37 1009.2
20260831014310 80 231 0.0 0.0 0.00 0.00 0.00 37 1009.1
20260831014107 80 230 0.0 1.0 0.00 0.00 0.00 36 1009.2
20260831013720 80 230 0.0 0.0 0.00 0.00 0.00 36 1009.2
20260831013507 80 230 0.0 0.0 0.00 0.00 0.00 36 1009.1
20260831013302 80 230 0.0 1.0 0.00 0.00 0.00 35 1009.1
20260831013056 80 230 0.0 3.0 0.00 0.00 0.00 34 1009.1
20260831012844 80 231 0.0 3.0 0.00 0.00 0.00 35 1009.1
20260831012450 81 231 0.0 3.0 0.00 0.00 0.00 34 1009.1
20260831012057 81 257 0.0 2.0 0.00 0.00 0.00 35 1009.1
20260831011850 81 257 0.0 2.0 0.00 0.00 0.00 35 1009.1
20260831011647 81 257 0.0 2.0 0.00 0.00 0.00 34 1009.2
20260831011437 81 257 0.0 2.0 0.00 0.00 0.00 34 1009.2
20260831011227 81 257 0.0 0.0 0.00 0.00 0.00 34 1009.1
20260831011022 81 257 0.0 1.0 0.00 0.00 0.00 33 1009.3
20260831010444 82 257 0.0 1.0 0.00 0.00 0.00 34 1009.2
20260831010233 82 257 0.0 4.0 0.00 0.00 0.00 33 1009.1
20260831010024 82 257 0.0 4.0 0.00 0.00 0.00 34 1009.2
20260831005816 82 258 0.0 4.0 0.00 0.00 0.00 33 1009.3
20260831005430 82 258 0.0 4.0 0.00 0.00 0.00 33 1009.1
20260831005220 83 258 0.0 4.0 0.00 0.00 0.00 33 1009.2
20260831005018 83 245 0.0 2.0 0.00 0.00 0.00 33 1009.1
20260831004808 83 245 0.0 0.0 0.00 0.00 0.00 33 1009.2
20260831004607 83 245 0.0 8.0 0.00 0.00 0.00 33 1009.2
20260831004404 83 245 1.0 8.0 0.00 0.00 0.00 32 1009.2
20260831004158 83 245 1.0 8.0 0.00 0.00 0.00 33 1009.2
20260831003948 83 245 1.0 8.0 0.00 0.00 0.00 33 1009.2
20260831003737 83 277 1.0 8.0 0.00 0.00 0.00 32 1009.2
20260831003527 83 277 1.0 8.0 0.00 0.00 0.00 32 1009.3
20260831003314 83 270 1.0 8.0 0.00 0.00 0.00 32 1009.3
20260831003109 83 266 1.0 8.0 0.00 0.00 0.00 33 1009.3
20260831002901 83 281 0.0 4.0 0.00 0.00 0.00 33 1009.3
20260831002659 83 264 0.0 4.0 0.00 0.00 0.00 33 1009.2
20260831002308 83 263 0.0 4.0 0.00 0.00 0.00 33 1009.3
20260831001919 83 273 0.0 7.0 0.00 0.00 0.00 34 1009.2
20260831001716 83 285 0.0 7.0 0.00 0.00 0.00 33 1009.2
20260831001504 83 284 0.0 7.0 0.00 0.00 0.00 33 1009.2
20260831001255 83 284 0.0 7.0 0.00 0.00 0.00 33 1009.2
20260831001044 83 269 0.0 3.0 0.00 0.00 0.00 33 1009.2
20260831000649 84 197 0.0 3.0 0.00 0.00 0.00 36 1009.2
20260831000435 84 197 1.0 3.0 0.00 0.00 0.00 33 1009.3
20260831000228 84 222 0.0 3.0 0.00 0.00 0.00 33 1009.3
20260830235655 84 273 0.0 4.0 0.00 0.00 0.00 33 1009.2
20260830235448 84 273 0.0 4.0 0.00 0.00 0.00 34 1009.2
20260830235243 84 212 0.0 1.0 0.00 0.00 0.00 33 1009.2
20260830234700 84 233 0.0 7.0 0.00 0.00 0.00 33 1009.2
20260830234453 84 272 0.0 7.0 0.00 0.00 0.00 32 1009.2
20260830234248 84 272 0.0 7.0 0.00 0.00 0.00 33 1009.2
20260830234040 84 272 1.0 7.0 0.00 0.00 0.00 33 1009.2
20260830233828 85 272 1.0 7.0 0.00 0.00 0.00 34 1009.2
20260830233624 85 273 1.0 7.0 0.00 0.00 0.00 34 1009.2
20260830233413 85 267 0.0 3.0 0.00 0.00 0.00 32 1009.3
20260830233015 85 278 0.0 3.0 0.00 0.00 0.00 33 1009.2
20260830232811 85 280 0.0 3.0 0.00 0.00 0.00 34 1009.1
20260830232423 84 304 0.0 4.0 0.00 0.00 0.00 33 1009.2
20260830232214 84 308 0.0 4.0 0.00 0.00 0.00 34 1009.2
20260830232006 84 229 0.0 4.0 0.00 0.00 0.00 36 1009.2
20260830231759 84 232 1.0 0.0 0.00 0.00 0.00 34 1009.2
20260830231546 84 232 1.0 5.0 0.00 0.00 0.00 36 1009.3
20260830231339 84 246 1.0 5.0 0.00 0.00 0.00 34 1009.3
20260830231137 85 274 1.0 5.0 0.00 0.00 0.00 33 1009.4
20260830230924 85 310 1.0 5.0 0.00 0.00 0.00 33 1009.3
20260830230718 85 280 1.0 5.0 0.00 0.00 0.00 33 1009.3
20260830230508 85 327 0.0 5.0 0.00 0.00 0.00 33 1009.3
20260830230301 85 335 0.0 5.0 0.00 0.00 0.00 34 1009.4
20260830230053 85 246 0.0 5.0 0.00 0.00 0.00 33 1009.3
20260830225851 85 297 0.0 1.0 0.00 0.00 0.00 35 1009.3
20260830225647 85 314 0.0 0.0 0.00 0.00 0.00 34 1009.3
20260830225435 85 314 1.0 5.0 0.00 0.00 0.00 34 1009.4
20260830225227 85 0 1.0 7.0 0.00 0.00 0.00 35 1009.4
20260830225022 85 315 1.0 7.0 0.00 0.00 0.00 33 1009.6
20260830224812 85 217 1.0 7.0 0.00 0.00 0.00 33 1009.6
20260830224606 85 218 2.0 7.0 0.00 0.00 0.00 34 1009.6
20260830224353 85 242 2.0 7.0 0.00 0.00 0.00 34 1009.5
20260830224002 85 220 2.0 7.0 0.00 0.00 0.00 33 1009.6
20260830223755 85 207 2.0 7.0 0.00 0.00 0.00 34 1009.5
20260830223407 85 221 1.0 6.0 0.00 0.00 0.00 34 1009.5
20260830223203 85 196 1.0 6.0 0.00 0.00 0.00 34 1009.6
20260830222815 85 211 1.0 7.0 0.00 0.00 0.00 34 1009.6
20260830222608 85 254 1.0 7.0 0.00 0.00 0.00 35 1009.6
20260830222359 85 215 1.0 7.0 0.00 0.00 0.00 33 1009.7
20260830222156 85 215 1.0 7.0 0.00 0.00 0.00 34 1009.8
20260830221944 85 207 2.0 7.0 0.00 0.00 0.00 36 1009.8
20260830221732 85 186 2.0 7.0 0.00 0.00 0.00 34 1009.8
20260830221527 85 209 1.0 7.0 0.00 0.00 0.00 34 1009.8
20260830221316 84 265 1.0 7.0 0.00 0.00 0.00 35 1009.9
20260830221106 85 220 1.0 7.0 0.00 0.00 0.00 35 1009.9
20260830220858 85 236 1.0 7.0 0.00 0.00 0.00 37 1009.9
20260830220655 84 236 1.0 7.0 0.00 0.00 0.00 36 1009.9
20260830220303 84 273 1.0 7.0 0.00 0.00 0.00 35 1010.0
20260830220055 84 219 1.0 3.0 0.00 0.00 0.00 36 1010.0
20260830215842 84 193 1.0 5.0 0.00 0.00 0.00 35 1010.0
20260830215634 85 182 1.0 5.0 0.00 0.00 0.00 36 1010.0
20260830215243 85 215 1.0 5.0 0.00 0.00 0.00 35 1010.1
20260830215038 85 237 1.0 5.0 0.00 0.00 0.00 35 1010.2
20260830214826 84 285 1.0 6.0 0.00 0.00 0.00 37 1010.1
20260830214623 85 304 1.0 6.0 0.00 0.00 0.00 35 1010.1
20260830214419 84 287 1.0 6.0 0.00 0.00 0.00 35 1010.2
20260830214213 84 243 1.0 6.0 0.00 0.00 0.00 37 1010.2
20260830214002 84 227 1.0 6.0 0.00 0.00 0.00 37 1010.2
20260830213606 84 224 1.0 6.0 0.00 0.00 0.00 37 1010.2
20260830213211 83 212 0.0 6.0 0.00 0.00 0.00 38 1010.3
20260830213010 83 215 0.0 6.0 0.00 0.00 0.00 38 1010.2
20260830212804 83 163 0.0 5.0 0.00 0.00 0.00 38 1010.2
20260830212556 83 268 0.0 5.0 0.00 0.00 0.00 37 1010.2
20260830212352 83 200 1.0 5.0 0.00 0.00 0.00 39 1010.2
20260830212141 83 175 1.0 5.0 0.00 0.00 0.00 37 1010.2
20260830211935 84 169 1.0 5.0 0.00 0.00 0.00 37 1010.3
20260830211546 83 205 1.0 5.0 0.00 0.00 0.00 38 1010.3
20260830211338 83 199 0.0 3.0 0.00 0.00 0.00 38 1010.3
20260830211131 83 226 0.0 6.0 0.00 0.00 0.00 37 1010.3
20260830210918 83 211 0.0 6.0 0.00 0.00 0.00 37 1010.3
20260830210708 84 184 0.0 6.0 0.00 0.00 0.00 37 1010.3
20260830210321 84 238 1.0 6.0 0.00 0.00 0.00 36 1010.3
20260830205925 83 200 0.0 7.0 0.00 0.00 0.00 38 1010.3
20260830205714 83 195 0.0 7.0 0.00 0.00 0.00 38 1010.4
20260830205506 84 185 0.0 7.0 0.00 0.00 0.00 38 1010.4
20260830205259 83 198 1.0 7.0 0.00 0.00 0.00 38 1010.3
20260830205058 83 181 1.0 7.0 0.00 0.00 0.00 39 1010.3
20260830204848 83 186 1.0 7.0 0.00 0.00 0.00 37 1010.4
20260830204637 83 281 1.0 7.0 0.00 0.00 0.00 39 1010.3
20260830204429 83 280 1.0 7.0 0.00 0.00 0.00 37 1010.5
20260830204225 83 215 1.0 6.0 0.00 0.00 0.00 37 1010.3
20260830204019 83 151 1.0 6.0 0.00 0.00 0.00 38 1010.5
20260830203622 83 221 1.0 6.0 0.00 0.00 0.00 37 1010.4
20260830203224 83 238 1.0 6.0 0.00 0.00 0.00 36 1010.5
20260830203020 83 250 1.0 6.0 0.00 0.00 0.00 37 1010.5
20260830202815 83 244 0.0 5.0 0.00 0.00 0.00 39 1010.4
20260830202602 82 225 1.0 5.0 0.00 0.00 0.00 39 1010.5
20260830202359 82 223 1.0 5.0 0.00 0.00 0.00 39 1010.5
20260830202154 81 222 1.0 5.0 0.00 0.00 0.00 38 1010.4
20260830201941 82 236 1.0 5.0 0.00 0.00 0.00 39 1010.5
20260830201729 82 209 1.0 5.0 0.00 0.00 0.00 39 1010.4
20260830201518 81 210 1.0 5.0 0.00 0.00 0.00 39 1010.5
20260830201305 82 196 1.0 5.0 0.00 0.00 0.00 41 1010.5
20260830201100 82 220 1.0 7.0 0.00 0.00 0.00 39 1010.6
20260830200854 81 205 0.0 7.0 0.00 0.00 0.00 41 1010.5
20260830200651 81 215 0.0 7.0 0.00 0.00 0.00 39 1010.5
20260830200441 81 215 0.0 7.0 0.00 0.00 0.00 41 1010.5
20260830200228 81 207 0.0 7.0 0.00 0.00 0.00 43 1010.5
20260830200019 81 246 1.0 5.0 0.00 0.00 0.00 39 1010.5
20260830195806 81 207 0.0 5.0 0.00 0.00 0.00 41 1010.5
20260830195554 81 203 1.0 5.0 0.00 0.00 0.00 42 1010.5
20260830195342 81 289 1.0 5.0 0.00 0.00 0.00 39 1010.5
20260830195133 80 267 1.0 5.0 0.00 0.00 0.00 39 1010.5
20260830194737 81 213 2.0 7.0 0.00 0.00 0.00 39 1010.6
20260830194526 81 245 1.0 5.0 0.00 0.00 0.00 37 1010.6
20260830194319 80 254 1.0 5.0 0.00 0.00 0.00 38 1010.5
20260830194110 80 169 1.0 5.0 0.00 0.00 0.00 42 1010.6
20260830193904 81 159 0.0 5.0 0.00 0.00 0.00 41 1010.6
20260830193656 81 174 0.0 4.0 0.00 0.00 0.00 40 1010.6
20260830193450 81 242 0.0 4.0 0.00 0.00 0.00 38 1010.6
20260830193238 81 236 0.0 4.0 0.00 0.00 0.00 38 1010.6
20260830193027 81 209 0.0 2.0 0.00 0.00 0.00 36 1010.6
20260830192825 80 209 0.0 2.0 0.00 0.00 0.00 40 1010.7
20260830192616 80 209 0.0 7.0 0.00 0.00 0.00 36 1010.7
20260830192407 81 209 1.0 7.0 0.00 0.00 0.00 35 1010.7
20260830192156 81 209 1.0 5.0 0.00 0.00 0.00 36 1010.7
20260830191944 82 226 2.0 5.0 0.00 0.00 0.00 34 1010.8
20260830191739 82 282 2.0 5.0 0.00 0.00 0.00 33 1010.7
20260830191535 82 279 1.0 5.0 0.00 0.00 0.00 33 1010.7